This demonstration page uses our WeatherBlox Daily Observations layout. Learn more.

Left ArrowRight Arrow

36.17497, -115.13722

Hourly Observations for May 24, 2017

Temp ( °F °C ) Dew Point ( °F °C ) Humidity (%) Winds ( mph kmh ) Pressure ( in mb ) Visibility ( mi km ) Precip ( " mm )
12:53 am 00:53 Clear 80 26.7 31 -0.6 17 17 NW 6 9 29.78 1008 10 16 0.00 0.00
1:53 am 01:53 Clear 78 25.6 33 0.6 19 19 Calm 29.76 1008 10 16 0.00 0.00
2:53 am 02:53 Clear 76 24.4 32 0 20 20 Calm 29.75 1008 10 16 0.00 0.00
3:53 am 03:53 Clear 75 23.9 32 0 21 21 NNE 5 7 29.74 1007 10 16 0.00 0.00
4:53 am 04:53 Clear 73 22.8 30 -1.1 20 20 N 5 7 29.74 1007 10 16 0.00 0.00
5:53 am 05:53 Sunny 74 23.3 33 0.6 22 22 Calm 29.73 1007 10 16 0.00 0.00
6:53 am 06:53 Sunny 76 24.4 36 2.2 23 23 NNW 5 7 29.74 1007 10 16 0.00 0.00
7:53 am 07:53 Sunny 83 28.3 28 -2.2 13 13 NNE 3 6 29.73 1007 10 16 0.00 0.00
8:53 am 08:53 Sunny 86 30 28 -2.2 12 12 Calm 29.72 1007 10 16 0.00 0.00
9:53 am 09:53 Sunny 89 31.7 27 -2.8 11 11 Calm 29.70 1006 10 16 0.00 0.00
10:53 am 10:53 Sunny 95 35 28 -2.2 9 9 SE 7 11 29.68 1005 10 16 0.00 0.00
11:53 am 11:53 Sunny 100 37.8 5 -15 3 3 SW 15 24 29.63 1003 10 16 0.00 0.03
12:53 pm 12:53 Sunny 101 38.3 15 -9.4 4 4 W 20 31 29.60 1002 10 16 0.00 0.00
1:53 pm 13:53 Sunny 99 37.2 9 -12.8 3 3 WSW 20 31 29.58 1002 10 16 0.00 0.00
2:53 pm 14:53 Sunny 100 37.8 14 -10 4 4 W 20 31 29.55 1001 10 16 0.00 0.00
3:53 pm 15:53 Sunny 99 37.2 11 -11.7 4 4 WSW 22 35 29.52 1000 10 16 0.00 0.00
4:53 pm 16:53 Sunny 101 38.3 10 -12.2 3 3 W 21 33 29.51 999 10 16 0.00 0.00
5:53 pm 17:53 Sunny 100 37.8 5 -15 3 3 WSW 18 30 29.48 998 10 16 0.00 0.00
6:53 pm 18:53 Sunny 98 36.7 13 -10.6 4 4 SW 21 33 29.47 998 10 16 0.00 0.00
7:53 pm 19:53 Clear 94 34.4 15 -9.4 5 5 WSW 20 31 29.47 998 10 16 0.00 0.00
8:53 pm 20:53 Clear 92 33.3 18 -7.8 6 6 WSW 13 20 29.49 999 10 16 0.00 0.00
9:53 pm 21:53 Clear 90 32.2 25 -3.9 9 9 W 18 30 29.49 999 10 16 0.00 0.00
10:53 pm 22:53 Clear 87 30.6 32 0 14 14 WSW 10 17 29.50 999 10 16 0.00 0.00
11:53 pm 23:53 Clear 85 29.4 33 0.6 15 15 SW 18 30 29.48 998 10 16 0.00 0.00

Powered by AerisWeather